Home > Weather > Charleston > Past weeks

Flag for USA Past Weather in Charleston, West Virginia, USA — Yesterday and Last 2 Weeks

Now
81 °F

Broken clouds.


Feels Like: 84 °F
Forecast: 70 / 84 °F
Wind: 3 mph from West

Location: Yeager Airport

Current Time: Jul 29, 2016 at 2:10:50 PM

Latest Report: Jul 29, 2016 at 12:54 PM


Visibility: 10 mi

Pressure: 29.96 "Hg

Humidity: 67%

Dew Point: 69 °F

Location of CharlestonLocation

Past Weather in Charleston — Graph

°F

Charleston Temperature Yesterday

Maximum temperature yesterday: 80 °F (at 1:54 PM)
Minimum temperature yesterday: 71 °F (at 10:54 PM)
Average temperature yesterday: 74 °F

High & Low Weather Summary for the Past Weeks

 TemperatureHumidityPressure
High96 °F (Jul 24, 4:54 PM)97% (Jul 16, 1:54 AM)30.27 "Hg (Jul 16, 1:54 AM)
Low62 °F (Jul 21, 5:01 AM)34% (Jul 21, 2:54 PM)29.85 "Hg (Jul 28, 3:54 PM)
Average77 °F77%30.05 "Hg
* Reported Jul 14 12:54 PM — Jul 29 12:54 PM, Charleston, Weather by CustomWeather, © 2016

Note: Actual official high and low records may vary slightly from our data, if they occured in-between our weather recording intervals... More about our weather records

Advertising

Charleston Weather History for the Previous 24 Hours

Scroll right to see more
 ConditionsComfort  
Time TempWeatherWind HumidityBarometerVisibility
12:54 PM
Fri, Jul 29
81 °FBroken clouds.3 mph67%29.96 "Hg10 mi
11:54 AM78 °FBroken clouds.5 mph74%29.95 "Hg10 mi
10:54 AM75 °FPartly sunny.6 mph85%29.96 "Hg9 mi
9:54 AM73 °FFog.No wind90%29.96 "Hg6 mi
8:54 AM73 °FFog.5 mph88%29.96 "Hg2 mi
7:54 AM72 °FFog.6 mph91%29.95 "Hg2 mi
6:54 AM71 °FDrizzle. Fog.5 mph93%29.94 "Hg2 mi
5:54 AM71 °FLight rain. Fog.3 mph93%29.93 "Hg2 mi
4:54 AM71 °FLight rain. Fog.5 mph93%29.92 "Hg2 mi
3:54 AM71 °FFog.No wind93%29.91 "Hg2 mi
2:54 AM71 °FFog.No wind93%29.91 "Hg2 mi
1:54 AM71 °FFog.No wind93%29.91 "Hg2 mi
12:54 AM70 °FFog.3 mph93%29.90 "Hg3 mi
11:54 PM
Thu, Jul 28
71 °FFog.No wind93%29.90 "Hg2 mi
10:54 PM71 °FFog.7 mph93%29.91 "Hg2 mi
9:54 PM72 °FFog.6 mph93%29.90 "Hg2 mi
8:54 PM73 °FRain. Fog.3 mph90%29.88 "Hg2 mi
7:54 PM74 °FFog.3 mph91%29.87 "Hg2 mi
6:54 PM74 °FFog.5 mph91%29.85 "Hg2 mi
5:54 PM75 °FFog.6 mph90%29.85 "Hg1 mi
4:54 PM75 °FLight rain. Fog.No wind90%29.85 "Hg1 mi
3:54 PM74 °FLight rain. Fog.3 mph94%29.85 "Hg1 mi
2:54 PM74 °FThunderstorms. Fog.No wind94%29.88 "Hg1 mi
Weather by CustomWeather, © 2016

See weather overviewHow to use our weather pages